This is the latest recevied weather packets stored in our database for station/object W7TTE. If no packets are shown the sender has not sent any weather packets the latest 10 day(s).
| Time | Temp. | Humidity | Pressure | Rain* | Wind** | Luminosity | Snow |
|---|---|---|---|---|---|---|---|
| 1777685773 | 31.67° C | 17% | 1010.2 hPa | 0 mm | - | 25 W/m² | - |
| 1777685469 | 32.22° C | 17% | 1010.4 hPa | 0 mm | - | 34 W/m² | - |
| 1777685167 | 32.22° C | 17% | 1010.1 hPa | 0 mm | - | 43 W/m² | - |
| 1777684865 | 32.78° C | 16% | 1010.4 hPa | 0 mm | - | 43 W/m² | - |
| 1777684561 | 32.22° C | 17% | 1010.3 hPa | 0 mm | - | 47 W/m² | - |
| 1777684257 | 32.22° C | 17% | 1010.4 hPa | 0 mm | - | 50 W/m² | - |
| 1777683955 | 32.78° C | 17% | 1010.5 hPa | 0 mm | - | 59 W/m² | - |
| 1777683651 | 32.78° C | 17% | 1010.4 hPa | 0 mm | - | 60 W/m² | - |
| 1777683349 | 32.78° C | 17% | 1010.2 hPa | 0 mm | - | 67 W/m² | - |
| 1777683047 | 32.78° C | 17% | 1010.4 hPa | 0 mm | - | 68 W/m² | - |
| 1777682742 | 32.78° C | 18% | 1010.3 hPa | 0 mm | - | 81 W/m² | - |
| 1777682439 | 32.78° C | 17% | 1010.4 hPa | 0 mm | - | 92 W/m² | - |
| 1777682137 | 32.78° C | 17% | 1010.5 hPa | 0 mm | - | 118 W/m² | - |
| 1777681834 | 32.78° C | 17% | 1010.5 hPa | 0 mm | - | 122 W/m² | - |
| 1777681530 | 32.78° C | 18% | 1010.4 hPa | 0 mm | - | 146 W/m² | - |
| 1777681227 | 32.78° C | 18% | 1010.6 hPa | 0 mm | - | 163 W/m² | - |
| 1777680925 | 32.78° C | 18% | 1010.5 hPa | 0 mm | - | 180 W/m² | - |
| 1777680622 | 32.78° C | 18% | 1010.8 hPa | 0 mm | - | 195 W/m² | - |
| 1777680320 | 32.78° C | 18% | 1010.4 hPa | 0 mm | - | 210 W/m² | - |
| 1777680017 | 33.33° C | 17% | 1010.6 hPa | 0 mm | - | 225 W/m² | - |
| 1777679713 | 33.33° C | 17% | 1010.5 hPa | 0 mm | - | 240 W/m² | - |
| 1777679409 | 33.33° C | 18% | 1010.5 hPa | 0 mm | - | 256 W/m² | - |
| 1777679104 | 32.78° C | 18% | 1010.5 hPa | 0 mm | - | 271 W/m² | - |
| 1777678803 | 32.22° C | 18% | 1010.9 hPa | 0 mm | - | 287 W/m² | - |
| 1777678501 | 32.78° C | 18% | 1010.7 hPa | 0 mm | - | 303 W/m² | - |
* Rain latest hour (hover to see other rain measurements)
** Current wind speed in m/s (hover to see current wind gust speed)